Weather History for Manitowoc, WI

Change the Weather History Date:

Saturday, January 19, 2013

  Actual Average Record
Temperature  
Mean Temperature 30 °F -  
Max Temperature 44 °F 27 °F 44 °F (1968)
Min Temperature 15 °F 10 °F -19 °F (1970)
Degree Days  
Heating Degree Days 34    
Moisture  
Dew Point 27 °F    
Average Humidity 69    
Maximum Humidity 87    
Minimum Humidity 49    
Precipitation  
Precipitation 0.00 in - - ()
Sea Level Pressure  
Sea Level Pressure 29.69 in    
Wind  
Wind Speed 12 mph (WSW)    
Max Wind Speed 37 mph    
Max Gust Speed 53 mph    
Visibility 10 miles    
Events      
Averages and records for this station are not official NWS values.
T = Trace of Precipitation, MM = Missing Value Source: NWS Daily Summary

Daily Weather History Graph

Daily Weather History Graph

Search for Another Location

Airport:

Trip Planner

Search our weather history database for the weather conditions in past years. The results will help you decide how hot, cold, wet, or windy it might be!

Date:

Astronomy

Jan. 19, 2013 Rise Set
Actual Time 7:20 AM CST 4:43 PM CST
Civil Twilight 6:48 AM CST 5:15 PM CST
Nautical Twilight 6:12 AM CST 5:50 PM CST
Astronomical Twilight 5:38 AM CST 6:25 PM CST
Moon 11:12 AM CST (1/19) 12:50 AM CST (1/19)
Length of Visible Light 10h 27m
Length of Day
9h 23m
First Quarter, 57% of the Moon is Illuminated
Jan 19
First Quarter
Jan 26
Full
Feb 3
Last Quarter
Feb 10
New
Feb 17
First Quarter

Hourly Weather History & Observations

Time (CST) Temp. Windchill Dew Point Humidity Pressure Visibility Wind Dir Wind Speed Gust Speed Precip Events Conditions
12:15 AM 39.2 °F 31.2 °F 30.2 °F 70% 29.76 in 10.0 mi WSW 13.8 mph - N/A   Clear
12:35 AM 39.2 °F 31.6 °F 28.4 °F 65% 29.76 in 10.0 mi WSW 12.7 mph 17.3 mph N/A   Clear
12:55 AM 39.2 °F 32.5 °F 30.2 °F 70% 29.77 in 10.0 mi WSW 10.4 mph - N/A   Clear
1:15 AM 39.2 °F 33.6 °F 28.4 °F 65% 29.77 in 10.0 mi WSW 8.1 mph - N/A   Clear
1:35 AM 37.4 °F 30.3 °F 28.4 °F 70% 29.78 in 10.0 mi WSW 10.4 mph - N/A   Clear
1:55 AM 37.4 °F 31.4 °F 28.4 °F 70% 29.80 in 10.0 mi West 8.1 mph - N/A   Clear
2:15 AM 37.4 °F 31.4 °F 28.4 °F 70% 29.80 in 10.0 mi West 8.1 mph - N/A   Clear
2:35 AM 37.4 °F 31.4 °F 28.4 °F 70% 29.80 in 10.0 mi West 8.1 mph - N/A   Clear
2:55 AM 37.4 °F 30.3 °F 28.4 °F 70% 29.80 in 10.0 mi West 10.4 mph - N/A   Clear
3:15 AM 37.4 °F 31.4 °F 28.4 °F 70% 29.80 in 10.0 mi WNW 8.1 mph - N/A   Clear
3:35 AM 35.6 °F 29.9 °F 28.4 °F 75% 29.80 in 10.0 mi WNW 6.9 mph - N/A   Scattered Clouds
3:55 AM 37.4 °F 32.1 °F 28.4 °F 70% 29.80 in 10.0 mi West 6.9 mph - N/A   Overcast
4:15 AM 35.6 °F 30.7 °F 28.4 °F 75% 29.81 in 10.0 mi WNW 5.8 mph - N/A   Scattered Clouds
4:35 AM 35.6 °F 29.9 °F 28.4 °F 75% 29.81 in 10.0 mi West 6.9 mph - N/A   Mostly Cloudy
4:55 AM 37.4 °F 32.8 °F 28.4 °F 70% 29.81 in 10.0 mi West 5.8 mph - N/A   Overcast
5:15 AM 37.4 °F 32.1 °F 28.4 °F 70% 29.80 in 10.0 mi West 6.9 mph - N/A   Mostly Cloudy
5:35 AM 35.6 °F 31.7 °F 28.4 °F 75% 29.80 in 10.0 mi WSW 4.6 mph - N/A   Overcast
5:55 AM 35.6 °F 32.8 °F 28.4 °F 75% 29.81 in 10.0 mi SW 3.5 mph - N/A   Overcast
6:15 AM 35.6 °F - 28.4 °F 75% 29.80 in 10.0 mi Calm Calm - N/A   Overcast
6:35 AM 35.6 °F - 28.4 °F 75% 29.79 in 10.0 mi Calm Calm - N/A   Overcast
6:55 AM 33.8 °F - 28.4 °F 81% 29.78 in 10.0 mi Calm Calm - N/A   Overcast
7:15 AM 33.8 °F 27.0 °F 28.4 °F 81% 29.79 in 10.0 mi South 8.1 mph - N/A   Overcast
7:35 AM 33.8 °F 28.6 °F 28.4 °F 81% 29.79 in 10.0 mi SSE 5.8 mph - N/A   Overcast
8:15 AM 35.6 °F 31.7 °F 30.2 °F 81% 29.78 in 10.0 mi SSE 4.6 mph - N/A   Overcast
8:35 AM 35.6 °F 29.9 °F 30.2 °F 81% 29.79 in 10.0 mi South 6.9 mph - N/A   Overcast
8:55 AM 35.6 °F 29.2 °F 30.2 °F 81% 29.78 in 10.0 mi South 8.1 mph - N/A   Overcast
9:15 AM 35.6 °F 29.9 °F 30.2 °F 81% 29.77 in 9.0 mi South 6.9 mph - N/A   Overcast
9:35 AM 35.6 °F 30.7 °F 32.0 °F 87% 29.77 in 10.0 mi SSW 5.8 mph - N/A   Overcast
9:55 AM 35.6 °F 29.2 °F 30.2 °F 81% 29.75 in 10.0 mi South 8.1 mph - N/A   Mostly Cloudy
10:15 AM 35.6 °F 32.8 °F 32.0 °F 87% 29.74 in 10.0 mi South 3.5 mph - N/A   Scattered Clouds
10:35 AM 37.4 °F 31.4 °F 32.0 °F 81% 29.72 in 10.0 mi South 8.1 mph - N/A   Partly Cloudy
10:55 AM 37.4 °F 30.8 °F 30.2 °F 75% 29.70 in 10.0 mi South 9.2 mph - N/A   Mostly Cloudy
11:15 AM 37.4 °F 30.8 °F 32.0 °F 81% 29.69 in 10.0 mi South 9.2 mph - N/A   Mostly Cloudy
11:35 AM 37.4 °F 29.3 °F 30.2 °F 75% 29.66 in 10.0 mi South 12.7 mph - N/A   Mostly Cloudy
11:55 AM 37.4 °F 30.3 °F 32.0 °F 81% 29.65 in 10.0 mi SSW 10.4 mph - N/A   Mostly Cloudy
12:15 PM 39.2 °F 31.2 °F 30.2 °F 70% 29.62 in 10.0 mi SSW 13.8 mph 20.7 mph N/A   Clear
12:35 PM 41.0 °F 37.1 °F 33.8 °F 76% 29.61 in 10.0 mi SW 5.8 mph - N/A   Clear
12:55 PM 42.8 °F 35.8 °F 32.0 °F 66% 29.60 in 10.0 mi SW 13.8 mph 18.4 mph N/A   Clear
1:15 PM 42.8 °F 35.4 °F 32.0 °F 66% 29.59 in 10.0 mi SW 15.0 mph - N/A   Clear
1:35 PM 44.6 °F 38.1 °F 30.2 °F 57% 29.59 in 10.0 mi SSW 13.8 mph - N/A   Clear
1:55 PM 44.6 °F 38.4 °F 32.0 °F 61% 29.58 in 10.0 mi WSW 12.7 mph - N/A   Clear
2:15 PM 44.6 °F 38.8 °F 30.2 °F 57% 29.57 in 10.0 mi SW 11.5 mph 24.2 mph N/A   Clear
2:35 PM 44.6 °F 38.4 °F 30.2 °F 57% 29.57 in 10.0 mi WSW 12.7 mph 19.6 mph N/A   Clear
2:55 PM 44.6 °F 38.8 °F 30.2 °F 57% 29.56 in 10.0 mi SW 11.5 mph 20.7 mph N/A   Partly Cloudy
3:15 PM 42.8 °F 35.8 °F 30.2 °F 61% 29.56 in 10.0 mi SW 13.8 mph 21.9 mph N/A   Scattered Clouds
3:35 PM 42.8 °F 35.4 °F 30.2 °F 61% 29.56 in 10.0 mi WSW 15.0 mph - N/A   Partly Cloudy
3:55 PM 42.8 °F 37.0 °F 30.2 °F 61% 29.56 in 10.0 mi WSW 10.4 mph 17.3 mph N/A   Scattered Clouds
4:15 PM 42.8 °F 35.8 °F 30.2 °F 61% 29.55 in 10.0 mi SW 13.8 mph 19.6 mph N/A   Overcast
4:35 PM 41.0 °F 33.1 °F 30.2 °F 65% 29.56 in 10.0 mi SW 15.0 mph 20.7 mph N/A   Mostly Cloudy
4:55 PM 41.0 °F 33.1 °F 30.2 °F 65% 29.55 in 10.0 mi WSW 15.0 mph 20.7 mph N/A   Partly Cloudy
5:15 PM 41.0 °F 33.5 °F 30.2 °F 65% 29.56 in 10.0 mi WSW 13.8 mph 19.6 mph N/A   Clear
5:35 PM 42.8 °F 35.4 °F 30.2 °F 61% 29.56 in 10.0 mi WSW 15.0 mph 21.9 mph N/A   Mostly Cloudy
5:55 PM 41.0 °F 32.8 °F 30.2 °F 65% 29.56 in 10.0 mi WSW 16.1 mph 24.2 mph N/A   Mostly Cloudy
6:15 PM 41.0 °F 29.8 °F 28.4 °F 61% 29.57 in 10.0 mi West 29.9 mph 39.1 mph N/A   Overcast
6:35 PM 37.4 °F 28.2 °F 28.4 °F 70% 29.58 in 10.0 mi West 16.1 mph 23.0 mph N/A   Mostly Cloudy
6:55 PM 39.2 °F 29.8 °F 24.8 °F 56% 29.57 in 10.0 mi WSW 18.4 mph 26.5 mph N/A   Overcast
7:15 PM 37.4 °F 26.6 °F 26.6 °F 65% 29.58 in 10.0 mi West 21.9 mph 39.1 mph N/A   Overcast
7:35 PM 33.8 °F 23.2 °F 28.4 °F 81% 29.55 in 7.0 mi West 17.3 mph 24.2 mph N/A   Overcast
7:55 PM 35.6 °F 26.2 °F 28.4 °F 75% 29.55 in 10.0 mi West 15.0 mph 23.0 mph N/A   Mostly Cloudy
8:15 PM 35.6 °F 25.2 °F 26.6 °F 70% 29.55 in 9.0 mi West 18.4 mph 36.8 mph N/A   Scattered Clouds
8:35 PM 33.8 °F 21.3 °F 26.6 °F 75% 29.56 in 2.5 mi West 24.2 mph 38.0 mph N/A   Overcast
8:55 PM 32.0 °F 16.3 °F 17.6 °F 55% 29.59 in 10.0 mi West 36.8 mph 48.3 mph N/A   Overcast
9:15 PM 28.4 °F 13.3 °F 14.0 °F 55% 29.61 in 10.0 mi West 27.6 mph 52.9 mph N/A   Mostly Cloudy
9:35 PM 24.8 °F 7.1 °F 10.4 °F 54% 29.64 in 10.0 mi West 33.4 mph 48.3 mph N/A   Mostly Cloudy
9:55 PM 23.0 °F 6.0 °F 8.6 °F 54% 29.66 in 10.0 mi West 27.6 mph 46.0 mph N/A   Overcast
10:15 PM 21.2 °F 3.9 °F 10.4 °F 63% 29.69 in 10.0 mi West 26.5 mph 43.7 mph N/A   Overcast
10:35 PM 19.4 °F 0.2 °F 8.6 °F 63% 29.71 in 10.0 mi West 31.1 mph 46.0 mph N/A   Overcast
10:55 PM 19.4 °F 0.2 °F 6.8 °F 58% 29.74 in 10.0 mi West 31.1 mph 41.4 mph N/A   Overcast
11:15 PM 17.6 °F -1.9 °F 6.8 °F 63% 29.75 in 10.0 mi West 29.9 mph 40.3 mph N/A   Overcast
11:35 PM 17.6 °F -3.1 °F 1.4 °F 49% 29.77 in 10.0 mi WNW 34.5 mph 43.7 mph N/A   Mostly Cloudy
11:55 PM 15.8 °F -4.1 °F 3.2 °F 58% 29.80 in 10.0 mi West 28.8 mph 41.4 mph N/A   Overcast